Probability
0 0 0 0 0 0 0 0 0 0 0 0 0 0 0 0 0 0 0 0 0 0 0 1 1 1 0 0 0 0 0 1 1 1 0 0 0 0 0 0 0 0 0
0 0 0 0 0 0 0 0 0 0 0 0 0 0 0 0 0 0 0 0 0 0 0 0 0 0 0 0 0 0 0 0 0 0 0 0 0 0 0 0 0 0 0
0 0 0 0 0 0 0 0 0 0 0 0 0 0 0 0 0 0 0 0 0 0 0 0 0 0 0 0 0 0 0 0 0 0 0 0 0 0 0 0 0 0 0
0 0 0 0 0 0 0 0 0 0 0 0 0 0 0 0 0 0 0 0 0 0 0 0 0 0 0 0 0 0 0 0 0 0 0 0 0 0 0 0 0 0 0
0 0 0 0 0 0 0 0 0 0 0 0 0 0 0 0 0 0 0 0 0 0 0 0 0 0 0 0 0 0 0 0 0 0 0 0 0 0 0 0 0 0 0
0 0 0 0 0 0 0 0 0 0 0 0 0 0 0 0 0 0 0 0 0 0 0 0 0 0 0 0 0 0 0 0 0 0 0 0 0 0 0 0 0 0 0
0 0 0 0 0 0 0 0 0 0 0 0 0 0 0 0 0 0 0 0 0 0 0 0 0 0 0 0 0 0 0 0 0 0 0 0 0 0 0 0 0 0 0
0 0 0 0 0 0 0 0 0 0 0 0 0 0 0 0 0 0 0 0 0 0 0 0 0 0 0 0 0 0 0 0 0 0 0 0 0 0 0 0 0 0 0
0 0 0 0 0 0 0 0 0 0 0 0 0 0 0 0 0 0 0 0 0 0 0 0 0 0 0 0 0 0 0 0 0 0 0 0 0 0 0 0 0 0 0
0 0 0 0 0 0 0 0 0 0 0 0 0 0 0 0 0 0 0 0 0 0 0 0 0 0 0 0 0 0 0 0 0 0 0 0 0 0 0 0 0 0 0
0 0 0 0 0 0 0 0 0 0 0 0 0 0 0 0 0 0 0 0 0 0 0 0 0 0 0 0 0 0 0 0 0 0 0 0 0 0 0 0 0 0 0
0 0 0 0 0 0 0 0 0 0 0 0 0 0 0 0 0 0 0 0 0 0 0 0 0 0 0 0 0 0 0 0 0 0 0 0 0 0 0 0 0 0 0
0 0 0 0 0 0 0 0 0 0 0 0 0 0 0 0 0 0 0 0 0 0 0 0 0 0 0 0 0 0 0 0 0 0 0 0 0 0 0 0 0 0 0
0 0 1 1 1 0 0 0 0 0 0 0 0 0 0 0 0 0 0 0 0 0 0 0 0 0 0 0 0 0 0 0 0 0 0 0 0 0 0 0 0 0 0
0 0 1 2 2 1 1 1 1 0 0 0 0 0 0 0 0 0 0 0 0 0 0 0 0 0 0 0 0 0 0 0 0 0 0 0 0 0 0 0 0 0 0
0 0 1 2 2 3 3 3 4 3 2 1 0 0 0 0 0 0 0 0 0 0 0 0 0 0 0 0 0 0 0 0 0 0 0 0 0 0 0 0 0 0 0
0 0 1 1 1 3 5 6 8 8 6 4 3 1 0 0 0 0 0 0 0 0 0 0 0 0 0 0 0 0 0 0 0 0 0 0 0 0 0 0 0 0 0
0 0 0 0 0 2 5 8 10 13 14 14 10 5 1 0 0 1 1 1 1 0 0 0 0 0 0 0 0 0 0 0 0 0 0 0 0 0 0 0 0 0 0
0 0 0 0 0 0 2 7 13 19 25 27 21 13 7 3 2 3 4 4 4 5 4 2 0 0 0 0 0 0 0 0 0 0 0 0 0 0 0 0 0 0 0
0 0 0 0 0 0 2 7 15 23 31 34 32 26 19 12 8 8 10 8 10 14 13 7 3 1 0 0 0 0 0 0 0 0 0 0 0 0 0 0 0 0 0
0 0 0 0 0 0 2 7 12 19 27 35 38 37 32 27 23 21 20 18 20 22 18 11 7 4 1 0 1 1 0 0 0 0 0 0 0 0 0 0 0 0 0
0 0 0 0 0 0 3 6 10 14 22 32 41 44 42 41 41 38 34 30 29 28 20 13 10 7 3 1 2 4 3 1 0 0 0 0 0 0 0 0 0 0 0
0 0 0 0 0 1 4 9 13 17 21 29 40 47 49 52 55 54 49 42 37 32 24 16 10 7 6 4 3 5 5 3 1 0 0 0 0 0 0 0 0 0 0
0 0 0 0 0 2 7 12 16 19 21 26 34 43 53 59 62 63 62 56 46 37 30 23 15 10 10 8 4 3 3 2 1 0 0 0 0 0 0 0 0 0 0
0 0 0 0 0 2 6 10 13 15 19 25 32 42 54 62 62 63 68 68 60 48 39 32 23 14 11 9 5 2 1 1 0 0 0 0 0 0 0 0 0 0 0
0 0 0 0 0 1 3 6 8 12 19 27 35 44 55 61 58 57 66 73 70 59 48 39 27 15 10 7 4 2 1 1 0 0 0 0 0 0 0 0 0 0 0
Wind_Speed
11 13 15 13 13 12 11 10 10 10 10 9 9 8 7 6 5 4 4 3 3 3 3 4 4 4 5 5 5 5 5 7 8 8 8 8 7 7 7 5 3 7 8
14 14 16 14 13 12 11 10 10 10 9 9 8 7 6 5 4 4 3 3 3 3 3 3 4 5 5 5 4 5 5 6 7 7 6 7 7 6 6 5 5 7 7
15 14 15 14 13 12 12 11 10 9 9 8 8 7 6 5 4 4 3 3 3 3 2 3 3 4 5 4 4 4 4 5 6 4 1 5 7 6 6 6 6 7 6
14 13 13 15 13 12 11 11 10 9 8 8 8 7 6 6 5 4 4 3 3 3 3 3 3 4 4 4 4 4 3 4 4 2 1 5 6 8 5 6 6 6 6
12 11 13 14 13 12 11 10 10 9 8 8 8 7 6 6 5 5 4 4 3 3 3 3 3 3 4 4 3 3 3 4 3 3 4 4 5 6 5 5 5 6 5
11 11 13 12 13 12 11 11 10 9 9 8 8 7 7 6 5 5 5 4 4 3 3 3 3 3 3 3 3 2 3 4 5 3 4 3 5 5 4 5 5 5 6
10 10 12 12 11 11 10 10 10 9 9 8 8 8 7 6 6 5 5 5 4 4 4 4 3 3 3 3 2 2 3 2 1 4 4 4 6 4 4 4 4 4 5
8 8 10 11 9 9 9 9 10 10 9 9 9 8 8 7 6 5 5 5 4 4 4 4 4 4 4 3 2 2 3 3 4 5 5 6 6 3 3 4 4 4 5
6 7 7 10 11 10 8 8 9 9 10 10 10 9 8 7 7 6 6 5 5 4 4 4 5 5 4 4 3 3 3 2 1 3 5 6 6 4 4 3 3 3 4
5 6 6 6 6 8 9 11 10 10 10 10 10 10 9 8 8 7 8 7 6 5 4 4 5 5 5 4 4 3 3 5 3 3 3 7 5 4 4 3 3 3 4
2 4 5 6 6 6 7 7 10 10 10 10 11 11 10 10 10 9 8 8 6 5 5 4 4 5 5 6 4 3 5 4 3 1 3 7 3 3 3 3 3 3 3
3 3 5 7 7 8 6 6 7 8 8 9 8 10 9 8 5 5 9 7 7 6 6 5 4 7 8 7 8 7 5 5 4 2 5 6 1 1 2 2 2 2 2
9 7 7 7 7 8 6 6 5 4 5 7 9 8 8 6 5 6 5 8 9 9 8 8 9 7 6 4 4 5 4 3 2 2 5 5 1 0 2 3 2 1 1
11 11 10 10 8 8 7 6 6 6 5 6 8 9 6 5 6 6 5 5 5 5 5 6 5 6 6 7 7 7 7 4 2 1 5 5 1 0 1 3 3 2 2
11 11 11 10 10 8 7 6 7 7 7 7 6 7 9 7 7 7 6 5 6 5 6 6 6 6 6 6 6 6 6 5 3 2 4 6 3 1 1 2 4 4 3
11 11 10 10 8 8 6 6 6 7 6 7 6 9 10 8 8 7 7 6 7 6 6 6 8 6 6 5 6 6 6 5 5 4 2 6 6 3 1 2 3 4 5
11 11 10 10 9 8 7 6 6 6 7 6 6 8 9 9 9 8 8 7 7 7 8 7 7 6 6 5 7 7 6 5 5 5 4 2 4 6 3 1 2 2 3
11 11 10 8 9 9 8 7 5 5 6 7 6 7 9 10 11 9 8 8 8 7 6 6 6 7 7 7 6 6 6 5 7 6 5 5 3 2 6 4 1 2 2
11 11 11 10 10 9 9 7 6 6 6 6 6 7 8 10 10 9 8 8 9 7 7 7 7 7 7 6 6 5 6 6 6 7 7 6 4 4 2 7 5 3 2
11 11 10 10 9 9 7 6 5 5 5 5 6 8 10 9 10 9 7 10 8 6 6 7 7 6 5 5 6 6 6 6 6 6 6 5 5 5 4 4 5 6 5
12 12 11 10 9 7 6 6 5 5 5 5 6 9 11 11 11 10 8 8 8 7 8 9 7 7 6 6 6 7 7 8 8 6 7 6 7 6 6 6 4 3 5
13 13 12 10 9 8 6 6 5 6 5 6 6 8 10 11 12 10 10 8 8 7 9 9 8 5 5 5 5 5 6 7 7 8 7 7 8 7 8 7 7 6 4
14 14 11 11 10 9 8 6 6 5 5 4 5 5 7 9 11 11 12 10 9 8 8 9 9 9 6 5 6 5 5 6 5 7 9 9 9 7 7 7 8 8 7
15 14 13 11 10 9 8 6 7 6 5 5 5 5 6 7 9 10 11 11 10 9 9 9 9 8 9 7 5 5 5 3 3 3 5 7 8 8 9 7 7 8 8
15 13 12 11 9 8 8 7 7 6 5 5 5 4 4 3 4 6 8 9 9 9 10 10 9 10 8 8 6 5 5 4 6 5 4 4 4 6 7 7 7 7 7
14 12 11 11 9 8 8 7 6 6 6 5 5 3 1 0 1 2 4 6 7 7 9 9 9 11 9 10 8 7 7 6 6 6 6 4 3 3 4 5 6 5 5
Wind_Direction
151 148 145 149 145 140 135 132 131 132 135 140 145 151 156 159 160 161 159 157 161 164 165 164 159 138 127 121 114 104 88 78 76 77 82 83 84 90 92 97 127 106 105
146 146 147 150 147 144 140 137 136 136 138 140 143 145 147 148 145 139 134 127 125 137 154 155 153 142 133 128 121 109 99 87 78 75 89 103 90 88 93 78 39 86 108
145 145 151 152 150 148 146 143 141 141 142 143 144 144 146 148 145 136 126 114 105 108 124 134 136 135 135 129 121 111 103 97 88 82 243 103 100 89 92 92 88 98 102
146 149 152 150 153 152 151 147 147 146 147 148 148 149 150 151 149 141 130 115 103 95 97 108 119 129 132 127 120 115 114 113 106 225 186 75 88 88 88 92 96 99 98
147 149 143 155 156 156 156 153 153 151 151 153 152 151 151 149 145 140 130 121 110 97 88 89 102 124 126 120 116 114 122 124 144 235 67 70 76 89 87 89 95 96 97
152 151 146 160 160 162 162 161 161 160 160 160 158 156 155 151 146 144 141 132 120 106 92 85 94 112 117 117 115 112 114 129 197 95 88 88 89 98 94 91 93 97 96
156 155 151 164 167 169 170 170 170 169 168 169 170 168 165 161 158 156 151 136 125 113 98 86 92 106 116 124 124 113 115 163 123 106 107 88 81 94 98 93 91 95 99
158 163 155 164 177 180 182 183 181 179 178 178 182 180 176 172 165 160 153 143 132 119 108 98 97 107 113 125 132 121 125 251 133 109 100 89 74 85 89 82 86 98 99
167 181 181 175 182 189 198 200 195 193 190 190 189 187 185 181 178 175 168 157 146 136 125 113 108 112 118 122 125 121 111 336 173 115 109 85 78 76 78 72 68 85 98
186 203 211 207 204 202 198 200 212 209 204 201 196 195 192 191 194 191 193 170 163 157 146 134 125 119 119 121 123 122 149 226 192 150 113 88 78 75 74 69 66 75 85
234 244 238 240 232 239 239 205 211 219 215 211 204 199 203 210 200 194 191 158 178 174 166 158 150 137 144 140 130 149 216 217 164 185 83 78 75 79 83 77 72 80 85
333 289 271 259 247 243 245 240 229 227 219 222 221 206 213 221 217 225 135 181 197 192 186 179 169 180 212 181 161 197 208 198 188 171 99 92 75 95 111 103 91 93 104
358 354 325 298 273 259 246 249 246 240 233 235 237 229 229 225 215 221 194 185 198 200 203 173 200 209 209 192 201 197 193 216 200 179 110 109 100 229 170 151 135 127 137
12 2 349 334 311 285 268 256 251 249 245 240 235 236 233 235 235 224 219 215 202 201 211 217 222 201 216 197 202 205 183 212 205 178 101 107 96 267 222 184 174 175 181
12 2 355 345 336 321 300 279 264 255 253 250 246 247 232 230 237 235 224 215 221 215 201 217 223 205 219 218 205 216 203 192 195 197 119 119 104 57 294 223 196 194 197
6 359 352 348 349 332 312 290 279 274 266 265 254 249 246 235 236 239 237 221 222 221 220 218 216 205 212 216 214 212 227 207 204 195 176 142 140 122 11 285 241 212 203
357 355 352 342 345 337 323 303 290 283 279 270 264 259 252 245 243 237 242 232 222 216 219 221 216 214 213 210 220 226 221 230 225 212 190 197 159 150 158 230 276 260 222
347 345 346 341 339 335 327 308 281 272 269 267 266 265 260 253 246 242 240 239 232 223 219 213 221 215 213 216 222 219 221 211 230 231 215 204 199 163 158 156 212 249 238
339 335 336 338 334 332 325 311 295 273 256 255 255 260 261 259 254 243 239 240 232 224 222 218 214 219 224 225 235 231 233 219 216 219 226 220 192 208 186 145 176 201 214
334 329 327 328 327 327 321 314 307 287 267 253 246 244 251 254 253 247 239 238 232 221 219 218 214 217 237 236 242 236 231 226 224 221 232 232 226 205 209 186 188 171 181
336 329 322 320 323 323 319 317 312 304 294 271 256 246 242 241 242 238 237 235 226 219 218 215 211 211 221 232 239 233 225 224 231 217 223 229 228 218 217 207 214 191 168
338 330 323 322 321 318 311 304 287 286 281 275 263 255 247 240 233 230 227 228 224 221 220 214 203 206 208 214 229 239 236 222 220 226 222 227 237 215 224 217 208 198 205
341 335 325 321 315 312 309 301 296 289 277 269 266 262 257 249 236 228 225 223 223 220 221 214 204 204 202 207 225 224 229 233 224 210 220 223 230 233 225 226 221 205 198
344 338 328 321 318 318 310 302 302 298 298 299 292 276 264 251 241 230 226 224 221 219 220 215 209 212 206 201 206 225 242 270 238 222 211 226 228 229 233 224 228 225 205
346 343 336 329 326 325 321 313 305 301 301 300 294 281 269 254 243 234 226 221 220 220 221 217 209 211 210 206 198 196 215 236 247 247 233 211 216 227 235 235 225 224 214
350 349 347 342 341 341 338 336 333 330 331 333 333 333 336 344 244 234 225 222 221 220 219 217 213 211 212 214 210 203 198 201 212 220 226 225 223 225 227 231 239 223 219